INTELSAT 33E (IS-33E) (41748 NORAD) Tracking and Keplerian Element Data

This shows tracking and keplerian element data for the satellite.

Feedback or suggestion? Click here.




ElementValue
Catalog41748
NameINTELSAT 33E (IS-33E)
Epoch Orbit850
Epoch Day322.67313768
Epoch Year2018
RAAN346.9552
Inclination0.0241
Eccentricity0.0002428
Argument of Perigee247.6816
Mean Anonmoly125.3748
Mean Motion1.00272231
Decay Rate5.7E-07
L11 41748U 16053B 18322.67313768 .00000057 00000-0 00000-0 0 9998
L22 41748 0.0241 346.9552 0002428 247.6816 125.3748 1.00272231 8508

Live tracking and technical data element details for INTELSAT 33E (IS-33E) (NORAD 41748). INTELSAT 33E (IS-33E) can be tracked NOW for your location showing map with azimuth and elevation plus other details from your city location.

Track the satellite on the map from your city or location and see movement details for azimuth, elevation, latitude, longitude, range, height, and movement on the map or in text.







IsCatalogInMostPopularTable: catalog: 41748, numindb: 115
Update: records affected: 1



GetName: 41748 INTELSAT 33E (IS-33E)

Hit Count: updated at: Mon, 19 Nov 2018 11:42:32 GMT